Location: Aufkirchen
(47.9603°N, 11.3653°E)
Time: 07:20:48
(UTC+01:00)

Transit 2A - Pass Details

Date: 26 November 2020
Orbit: 598 x 960 km, 66.7° (Epoch: 16 January)

Event Time Altitude Azimuth Distance (km) Brightness Sun altitude
Rises 23:22:35 0° 317° (NW) 3,480 - -62.0°
Reaches altitude 10° 23:27:04 10° 348° (NNW) 2,449 - -62.3°
Maximum altitude 23:29:06 12° 10° (N) 2,274 - -62.4°
Drops below altitude 10° 23:31:04 10° 31° (NNE) 2,357 - -62.5°
Sets 23:35:09 0° 63° (ENE) 3,182 - -62.7°
